Погода в Сент-Джулиансе

Мальта     35°55′10″N   14°29′18″E
темп.,
°C
ветер,
м/с
пор.,
м/с
влажн.,
%
обл.,
%
осадки,
мм/ч
давл.,
гПа
погр.,
м
28 февраля, вс
вс2801:00+14зсз56750 0.0 1022409
04:00+14зсз45750 0.0 1022382
07:00+14зсз33780 0.0 1023379
10:00+15сз22760 0.0 1024394
13:00+15св43750 0.0 1024525
16:00+16в56710 0.0 1024726
19:00+15в810740 0.0 1025726
22:00+15в79750 0.0 1027742
1 марта, пн
пн101:00+15в67780 0.0 1026751
04:00+14всв78740 0.0 1026738
07:00+14всв78750 0.0 1026766
10:00+15всв78770 0.0 1027796
13:00+15всв67761 0.0 1027753
16:00+15всв67760 0.0 1026667
19:00+14в67790 0.0 1027521
22:00+14всв67790 0.0 1028558
2 марта, вт
вт201:00+14всв66800 0.0 1028642
04:00+14всв67800 0.0 1027605
07:00+14всв67790 0.0 1028696
10:00+14в77730 0.0 1030875
13:00+15в77712 0.0 1030973
16:00+14в887366 0.0 1029845
19:00+14в797147 0.0 1030896
22:00+14всв78756 0.0 1030858
3 марта, ср
ср301:00+14всв567610 0.1 1030813
04:00+14в567312 0.1 1029868
07:00+14в677323 0.1 1029788
10:00+15юв8871100 0.3 1030929
13:00+15юв776689 0.3 1029908
16:00+15юв66672 0.0 1028894
19:00+14юв67707 0.0 1028969
22:00+14вюв67680 0.0 1028975
4 марта, чт
чт401:00+14юв566936 0.0 10271024
04:00+14вюв676998 0.0 1026995
07:00+14юв676898 0.1 10251095
10:00+14юв786699 0.0 10251266
13:00+15юв896970 0.0 10231170
16:00+15юв7872100 0.1 10211119
19:00+15юв8975100 0.1 10201005
22:00+15юв101276100 0.0 10191068